Starlink 34129

operational
NORAD ID: 64138 Int'l Des: 2025-111 Owner: SPXS Country: US Constellation: starlink
LEOCIRCULAR

关于 Starlink 34129

正在加载描述...

实时位置

正在加载3D地球...

即将过境

高度历史

Altitude vs Time

uPlot chart will show altitude changes over time

两行轨道根数

1 64138U 25111R 25260.23735704 .00025896 00000-0 94726-3 0 9999
2 64138 43.0034 337.6495 0004174 289.3673 70.6727 15.27574197 18982
Epoch: Sep 17, 2025 • Age: 44 hours

当前状态

高度 486.9 km
速度 7.63 km/s
星下点 39.50°N, 1.54°E
发射日期 May 24, 2025
运行时间 0.3 years
类型 internet

技术详情

分类 Payload
质量 575.00 kg
干质量 530.00 kg
总质量 575.00 kg
长度 0.30 m
直径 4.10 m
跨度 29.00 m
形状 Box + pan
制造商 SPXS
平台类型 Starlink V2MO
阶段状态 In Orbit
所有者/国家 SPXS/US

大型星座

Loading constellations...